Weather History for Westerland, Germany

Change the Weather History Date:

Saturday, April 28, 2012

  Actual Average Record
Temperature  
Mean Temperature 44 °F -  
Max Temperature 46 °F 53 °F 66 °F (2014)
Min Temperature 42 °F 45 °F 37 °F (2013)
Degree Days  
Heating Degree Days 21    
Moisture  
Dew Point 40 °F    
Average Humidity 84    
Maximum Humidity 93    
Minimum Humidity 76    
Precipitation  
Precipitation 0.00 in - - ()
Sea Level Pressure  
Sea Level Pressure 30.09 in    
Wind  
Wind Speed 13 mph ()    
Max Wind Speed 26 mph    
Max Gust Speed 31 mph    
Visibility 6.1 miles    
Events Rain    
Averages and records for this station are not official NWS values.
T = Trace of Precipitation, MM = Missing Value Source: Averaged Metar Reports

Daily Weather History Graph

Daily Weather History Graph

Search for Another Location

Airport:

Trip Planner

Search our weather history database for the weather conditions in past years. The results will help you decide how hot, cold, wet, or windy it might be!

Date:

Astronomy

Apr. 28, 2012 Rise Set
Actual Time 5:52 AM CEST 8:56 PM CEST
Civil Twilight 5:10 AM CEST 9:38 PM CEST
Nautical Twilight 4:15 AM CEST 10:35 PM CEST
Astronomical Twilight 2:59 AM CEST 11:53 PM CEST
Moon 11:07 AM CEST (4/28) 2:21 AM CEST (4/28)
Length of Visible Light 16h 28m
Length of Day
15h 03m
Waxing Crescent, 40% of the Moon is Illuminated
Apr 28
Waxing Crescent
Apr 29
First Quarter
May 6
Full
May 12
Last Quarter
May 21
New

Hourly Weather History & Observations

Time (CEST) Temp. Windchill Dew Point Humidity Pressure Visibility Wind Dir Wind Speed Gust Speed Precip Events Conditions
12:20 AM 44.6 °F 38.8 °F 42.8 °F 93% 30.06 in 3.7 mi West 11.5 mph - N/A   Overcast
12:50 AM 44.6 °F 40.2 °F 42.8 °F 93% 30.06 in 5.6 mi West 8.1 mph - N/A   Overcast
1:20 AM 44.6 °F 40.7 °F 42.8 °F 93% 30.06 in 5.0 mi West 6.9 mph - N/A   Mostly Cloudy
1:50 AM 46.4 °F 41.5 °F 44.6 °F 93% 30.06 in 6.2 mi WNW 10.4 mph - N/A   Overcast
2:20 AM 44.6 °F 40.7 °F 42.8 °F 93% 30.06 in 6.2 mi WNW 6.9 mph - N/A   Overcast
2:50 AM 44.6 °F 41.4 °F 42.8 °F 93% 30.09 in 6.2 mi NNW 5.8 mph - N/A   Overcast
3:20 AM 46.4 °F 43.5 °F 42.8 °F 87% 30.09 in 6.2 mi North 5.8 mph - N/A   Overcast
3:50 AM 46.4 °F 42.4 °F 42.8 °F 87% 30.09 in 6.2 mi North 8.1 mph - N/A   Overcast
4:20 AM 44.6 °F 40.7 °F 42.8 °F 93% 30.09 in 6.2 mi North 6.9 mph - N/A   Overcast
4:50 AM 46.4 °F 43.5 °F 41.0 °F 81% 30.09 in 6.2 mi North 5.8 mph - N/A   Overcast
5:20 AM 46.4 °F 42.9 °F 41.0 °F 81% 30.12 in 6.2 mi North 6.9 mph - N/A   Mostly Cloudy
5:50 AM 46.4 °F 41.1 °F 42.8 °F 87% 30.12 in 6.2 mi NE 11.5 mph - N/A   Overcast
6:20 AM 46.4 °F 40.7 °F 41.0 °F 81% 30.12 in 6.2 mi NNE 12.7 mph - N/A   Mostly Cloudy
6:50 AM 46.4 °F 40.7 °F 41.0 °F 81% 30.12 in 6.2 mi NNE 12.7 mph - N/A   Overcast
7:20 AM 44.6 °F 37.8 °F 41.0 °F 87% 30.12 in 6.2 mi NNE 15.0 mph - N/A   Mostly Cloudy
7:50 AM 44.6 °F 37.4 °F 41.0 °F 87% 30.12 in 6.2 mi NNE 16.1 mph - N/A   Mostly Cloudy
8:20 AM 44.6 °F 37.4 °F 41.0 °F 87% 30.12 in 6.2 mi NNE 16.1 mph - N/A   Mostly Cloudy
8:50 AM 46.4 °F 39.8 °F 41.0 °F 81% 30.12 in 6.2 mi NE 16.1 mph - N/A   Mostly Cloudy
9:20 AM 46.4 °F 39.5 °F 41.0 °F 81% 30.12 in 6.2 mi NE 17.3 mph - N/A   Mostly Cloudy
9:50 AM 46.4 °F 39.5 °F 41.0 °F 81% 30.12 in 6.2 mi NE 17.3 mph - N/A   Mostly Cloudy
10:20 AM 46.4 °F 39.2 °F 39.2 °F 76% 30.12 in 6.2 mi NE 18.4 mph - N/A   Light Drizzle
10:50 AM 46.4 °F 39.5 °F 39.2 °F 76% 30.15 in 6.2 mi NE 17.3 mph - N/A   Light Drizzle
11:20 AM 44.6 °F 37.2 °F 39.2 °F 81% 30.12 in 5.0 mi NE 17.3 mph - N/A Rain Light Rain
11:50 AM 44.6 °F 37.2 °F 39.2 °F 81% 30.12 in 5.6 mi NNE 17.3 mph - N/A Rain Light Rain
12:20 PM 44.6 °F 37.2 °F 39.2 °F 81% 30.12 in 6.2 mi NNE 17.3 mph - N/A Rain Light Rain
12:50 PM 44.6 °F 36.9 °F 39.2 °F 81% 30.12 in 6.2 mi NNE 18.4 mph - N/A Rain Light Rain
1:20 PM 42.8 °F 34.8 °F 39.2 °F 87% 30.12 in 6.2 mi NNE 17.3 mph - N/A   Light Drizzle
1:50 PM 42.8 °F 34.3 °F 39.2 °F 87% 30.09 in 6.2 mi NNE 19.6 mph - N/A Rain Light Rain
2:20 PM 42.8 °F 34.5 °F 39.2 °F 87% 30.09 in 6.2 mi NNE 18.4 mph - N/A   Overcast
2:50 PM 42.8 °F 34.5 °F 39.2 °F 87% 30.09 in 6.2 mi NNE 18.4 mph - N/A   Overcast
3:20 PM 42.8 °F 34.3 °F 39.2 °F 87% 30.09 in 6.2 mi NNE 19.6 mph - N/A   Overcast
3:50 PM 42.8 °F 34.5 °F 39.2 °F 87% 30.09 in 6.2 mi NNE 18.4 mph - N/A   Overcast
4:20 PM 44.6 °F 36.4 °F 39.2 °F 81% 30.09 in 6.2 mi NNE 20.7 mph - N/A   Overcast
4:50 PM 42.8 °F 34.3 °F 37.4 °F 81% 30.09 in 6.2 mi NNE 19.6 mph - N/A   Overcast
5:20 PM 42.8 °F 33.5 °F 37.4 °F 81% 30.09 in 6.2 mi NNE 23.0 mph - N/A   Overcast
5:50 PM 44.6 °F 36.1 °F 37.4 °F 76% 30.09 in 6.2 mi NNE 21.9 mph - N/A   Overcast
6:20 PM 44.6 °F 36.6 °F 37.4 °F 76% 30.09 in 6.2 mi NNE 19.6 mph 31.1 mph N/A   Overcast
6:50 PM 44.6 °F 35.7 °F 37.4 °F 76% 30.09 in 6.2 mi NE 24.2 mph - N/A   Overcast
7:20 PM 44.6 °F 35.3 °F 39.2 °F 81% 30.04 in 6.2 mi NNE 26.5 mph - N/A   Mostly Cloudy
7:50 PM 44.6 °F 36.1 °F 39.2 °F 81% 30.04 in 6.2 mi NNE 21.9 mph - N/A   Scattered Clouds
8:20 PM 44.6 °F 36.6 °F 39.2 °F 81% 30.09 in 6.2 mi NNE 19.6 mph - N/A   Mostly Cloudy
8:50 PM 44.6 °F 36.6 °F 39.2 °F 81% 30.09 in 6.2 mi NNE 19.6 mph - N/A   Overcast
9:20 PM 42.8 °F 34.8 °F 39.2 °F 87% 30.09 in 6.2 mi NNE 17.3 mph - N/A   Overcast
9:50 PM 42.8 °F 35.1 °F 39.2 °F 87% 30.09 in 6.2 mi NNE 16.1 mph - N/A   Mostly Cloudy
10:20 PM 44.6 °F 37.2 °F 39.2 °F 81% 30.06 in 6.2 mi NE 17.3 mph - N/A   Mostly Cloudy
10:50 PM 44.6 °F 36.1 °F 37.4 °F 76% 30.06 in 6.2 mi NE 21.9 mph - N/A   Partly Cloudy
11:20 PM 44.6 °F 36.4 °F 37.4 °F 76% 30.06 in 6.2 mi NE 20.7 mph - N/A   Unknown
11:50 PM 44.6 °F 36.6 °F 37.4 °F 76% 30.06 in 6.2 mi NE 19.6 mph - N/A   Partly Cloudy